Location: Mexico
(19.4000°N, 99.1500°W)
Time: 00:47:49
(UTC-06:00)

ISS - Pass Details

Date: 23 July 2017
Orbit: 400 x 408 km, 51.6° (Epoch: 21 July)

Event Time Altitude Azimuth Distance (km) Brightness Sun altitude
Rises 19:47:38 0° 219° (SW) 2,298 0.2 -7.7°
Reaches altitude 10° 19:49:42 10° 220° (SW) 1,440 -0.8 -8.1°
Maximum altitude 19:52:55 83° 308° (NW) 404 -3.8 -8.8°
Drops below altitude 10° 19:56:09 10° 37° (NE) 1,441 -1.2 -9.5°
Sets 19:58:14 0° 38° (NE) 2,299 -0.1 -9.9°
